Flag Weather past 2 weeks in Linden, Guyana

Now
77 °F

Clear.


Feels Like: 78 °F
Forecast: 73 / 85 °F
Wind: 5 mph from Northeast

Location: Georgetown/Cheddi Jagan International Airport

Current Time: Nov 28, 2014 at 9:50:02 PM

Latest Report: Nov 28, 2014 at 9:00 PM


Visibility: 10 mi

Pressure: 29.89 "Hg

Humidity: 94%

Dew point: 75 °F

Location of LindenLocation

Historic Weather in Linden — Graph

°F

Linden temperature yesterday

Maximum temperature yesterday: 84 °F (at 12:00 PM)
Minimum temperature yesterday: 73 °F (at 4:00 AM)
Average temperature yesterday: 77 °F

Past Weeks' High & Low Weather Summary

 TemperatureHumidityPressure
High91 °F (Nov 15, 2:00 PM)100% (Nov 13, 11:00 PM)29.98 "Hg (Nov 13, 11:00 PM)
Low70 °F (Nov 18, 5:00 AM)56% (Nov 15, 2:00 PM)29.74 "Hg (Nov 14, 3:00 PM)
Average79 °F88%29.85 "Hg
* Reported Nov 13 8:00 PM — Nov 28 8:00 PM, Linden, Weather by CustomWeather, © 2014

Note: Actual official high and low records may vary slightly from our data, if they occured in-between our weather recording intervals... More about our weather records

Advertising

Linden weather history for previous 24 hours

 ConditionsComfort  
Time TempWeatherWind HumidityBarometerVisibility
8:00 PM
Nov 28
77 °FPassing clouds.7 mph94%29.86 "HgN/A
7:00 PM77 °FPassing clouds.7 mph94%29.86 "HgN/A
6:00 PM79 °FPassing clouds.7 mph89%29.83 "HgN/A
5:00 PM81 °FPartly sunny.9 mph84%29.83 "HgN/A
4:00 PM82 °FBroken clouds.9 mph79%29.83 "HgN/A
3:00 PM84 °FBroken clouds.9 mph70%29.83 "HgN/A
2:00 PM84 °FPartly sunny.9 mph70%29.83 "HgN/A
1:00 PM84 °FPartly sunny.9 mph70%29.86 "HgN/A
12:00 PM84 °FPartly sunny.12 mph74%29.89 "HgN/A
11:00 AM82 °FPartly sunny.7 mph79%29.92 "HgN/A
10:00 AM81 °FPartly sunny.5 mph84%29.92 "HgN/A
9:00 AM81 °FBroken clouds.7 mph84%29.92 "HgN/A
8:00 AM79 °FPartly sunny.5 mph89%29.92 "HgN/A
7:00 AM73 °FBroken clouds.2 mph100%29.89 "Hg6 mi
6:00 AM72 °FBroken clouds.5 mph100%29.86 "Hg5 mi
5:00 AM72 °FFog.5 mph100%29.86 "Hg1 mi
4:00 AM73 °FPassing clouds.No wind94%29.83 "Hg6 mi
2:00 AM73 °FPassing clouds.No wind100%29.83 "Hg6 mi
1:00 AM73 °FPassing clouds.5 mph100%29.86 "HgN/A
12:00 AM73 °FPassing clouds.5 mph100%29.89 "HgN/A
11:00 PM
Nov 27
75 °FPassing clouds.5 mph94%29.92 "HgN/A
10:00 PM75 °FPartly cloudy.5 mph94%29.92 "HgN/A
9:00 PM77 °FPassing clouds.5 mph89%29.92 "HgN/A
Weather by CustomWeather, © 2014

See weather overviewHow to use our weather pages